Weather History for KCFE - February, 2014

Change the Weather History Date:

Friday, February 21, 2014

  Actual Average (KSTC) Record (KSTC)
Temperature  
Mean Temperature 9 °F 19 °F  
Max Temperature 14 °F 29 °F 55 °F (1961)
Min Temperature 4 °F 10 °F -25 °F (1939)
Degree Days  
Heating Degree Days 56 46  
Month to date heating degree days 1034  
Since 1 July heating degree days 6136  
Cooling Degree Days 0 0  
Month to date cooling degree days 0  
Year to date cooling degree days 0  
Moisture  
Dew Point 4 °F    
Average Humidity 77    
Maximum Humidity 89    
Minimum Humidity 71    
Precipitation  
Precipitation 0.00 in 0.02 in 0.54 in (1957)
Month to date precipitation 0.39  
Year to date precipitation 1.04  
Snow  
Snow 0.00 in 0.30 in 5.90 in (1957)
Month to date snowfall 5.0  
Since 1 July snowfall 32.2  
Snow Depth -    
Sea Level Pressure  
Sea Level Pressure 29.56 in    
Wind  
Wind Speed 16 mph (West)    
Max Wind Speed 22 mph    
Max Gust Speed 30 mph    
Visibility 8 miles    
Events      
T = Trace of Precipitation, MM = Missing Value Source: NWS Daily Summary

Daily Weather History Graph

Daily Weather History Graph

Search for Another Location

Airport or City:

Trip Planner

Search our weather history database for the weather conditions in past years. The results will help you decide how hot, cold, wet, or windy it might be!

Date:

Astronomy

Feb. 21, 2014 Rise Set
Actual Time 7:06 AM CST 5:51 PM CST
Civil Twilight 6:37 AM CST 6:21 PM CST
Nautical Twilight 6:02 AM CST 6:55 PM CST
Astronomical Twilight 5:28 AM CST 7:29 PM CST
Moon 12:03 AM CST (2/21) 10:13 AM CST (2/21)
Length of Visible Light 11h 44m
Length of Day
10h 44m
Waning Gibbous, 60% of the Moon is Illuminated
Feb 21
Waning Gibbous
Feb 22
Last Quarter
Mar 1
New
Mar 8
First Quarter
Mar 16
Full

Hourly Weather History & Observations

Time (CST) Temp. Windchill Dew Point Humidity Pressure Visibility Wind Dir Wind Speed Gust Speed Precip Events Conditions
12:15 AM 13.1 °F -2.0 °F 10.4 °F 89% 29.36 in - WNW 13.8 mph 20.7 mph N/A   Overcast
12:36 AM 12.7 °F -4.1 °F 9.5 °F 87% 29.36 in - WNW 17.3 mph 21.9 mph N/A   Overcast
12:55 AM 12.2 °F -3.7 °F 9.1 °F 88% 29.36 in - WNW 15.0 mph 26.5 mph N/A   Overcast
1:15 AM 12.2 °F -3.7 °F 8.6 °F 85% 29.36 in - West 15.0 mph 24.2 mph N/A   Overcast
1:35 AM 11.8 °F -5.3 °F 8.4 °F 86% 29.36 in - WNW 17.3 mph 21.9 mph N/A   Overcast
1:55 AM 11.5 °F -7.2 °F 7.9 °F 85% 29.36 in - West 20.7 mph 28.8 mph N/A   Overcast
2:16 AM 11.3 °F -4.9 °F 7.7 °F 85% 29.37 in - West 15.0 mph 23.0 mph N/A   Overcast
2:36 AM 11.1 °F -5.7 °F 7.3 °F 85% 29.38 in - West 16.1 mph 24.2 mph N/A   Overcast
2:55 AM 10.4 °F -7.7 °F 6.4 °F 84% 29.38 in - West 18.4 mph 27.6 mph N/A   Unknown
3:16 AM 9.7 °F -9.6 °F 5.5 °F 83% 29.39 in - West 20.7 mph 26.5 mph N/A   Overcast
3:36 AM 8.6 °F -10.0 °F 4.5 °F 83% 29.39 in - West 18.4 mph 28.8 mph N/A   Scattered Clouds
3:55 AM 8.4 °F -8.6 °F 3.9 °F 82% 29.40 in - West 15.0 mph 27.6 mph N/A   Unknown
4:16 AM 7.7 °F -11.7 °F 3.2 °F 82% 29.41 in - West 19.6 mph 27.6 mph N/A   Mostly Cloudy
4:36 AM 7.7 °F -10.7 °F 3.0 °F 81% 29.42 in - West 17.3 mph 25.3 mph N/A   Scattered Clouds
4:55 AM 7.5 °F -9.7 °F 2.3 °F 79% 29.43 in - West 15.0 mph 24.2 mph N/A   Unknown
5:16 AM 7.2 °F -9.6 °F 1.9 °F 79% 29.44 in - West 13.8 mph 24.2 mph N/A   Scattered Clouds
5:35 AM 6.4 °F -9.8 °F 1.4 °F 80% 29.44 in - West 12.7 mph 20.7 mph N/A   Unknown
5:56 AM 5.9 °F -11.2 °F 1.2 °F 81% 29.44 in - West 13.8 mph 23.0 mph N/A   Unknown
6:15 AM 5.9 °F -13.0 °F 1.0 °F 80% 29.44 in - West 17.3 mph 24.2 mph N/A   Clear
6:36 AM 5.9 °F -11.8 °F 0.9 °F 80% 29.44 in - West 15.0 mph 25.3 mph N/A   Clear
6:55 AM 5.7 °F -12.6 °F 0.5 °F 79% 29.45 in - West 16.1 mph 23.0 mph N/A   Clear
7:15 AM 5.2 °F -15.0 °F 0.1 °F 80% 29.46 in - West 19.6 mph 26.5 mph N/A   Clear
7:36 AM 4.8 °F -14.9 °F -0.4 °F 79% 29.47 in - West 18.4 mph 24.2 mph N/A   Clear
7:55 AM 4.3 °F -13.9 °F -0.9 °F 79% 29.48 in - West 15.0 mph 26.5 mph N/A   Clear
8:15 AM 4.3 °F -15.1 °F -0.9 °F 79% 29.49 in - West 17.3 mph 26.5 mph N/A   Clear
8:36 AM 4.5 °F -15.4 °F -1.3 °F 77% 29.49 in - West 18.4 mph 28.8 mph N/A   Clear
8:55 AM 4.8 °F -13.8 °F -1.1 °F 76% 29.50 in - West 16.1 mph 23.0 mph N/A   Clear
9:15 AM 5.4 °F -14.2 °F -0.6 °F 76% 29.50 in - West 18.4 mph 26.5 mph N/A   Clear
9:36 AM 5.7 °F -14.3 °F -0.4 °F 76% 29.51 in - West 19.6 mph 26.5 mph N/A   Clear
9:56 AM 5.5 °F -14.0 °F -0.4 °F 77% 29.52 in - West 18.4 mph 24.2 mph N/A   Clear
10:15 AM 6.1 °F -13.3 °F -0.2 °F 75% 29.53 in - West 18.4 mph 27.6 mph N/A   Clear
10:36 AM 6.8 °F -10.7 °F 0.5 °F 75% 29.54 in - West 15.0 mph 20.7 mph N/A   Clear
10:55 AM 6.8 °F -10.7 °F 0.3 °F 75% 29.54 in - West 15.0 mph 25.3 mph N/A   Clear
11:15 AM 7.3 °F -10.0 °F 0.9 °F 75% 29.55 in - West 15.0 mph 24.2 mph N/A   Clear
11:36 AM 8.2 °F -11.9 °F 1.4 °F 74% 29.55 in - West 21.9 mph 27.6 mph N/A   Clear
11:55 AM 8.2 °F -11.5 °F 1.4 °F 74% 29.56 in 5.0 mi West 20.7 mph 25.3 mph N/A   Haze
12:15 PM 8.8 °F -8.1 °F 2.1 °F 74% 29.56 in 7.0 mi West 15.0 mph 21.9 mph N/A   Clear
12:36 PM 9.1 °F -9.8 °F 2.1 °F 73% 29.56 in 5.0 mi West 19.6 mph 24.2 mph N/A   Haze
12:55 PM 9.5 °F -7.8 °F 2.5 °F 73% 29.56 in 7.0 mi West 16.1 mph 23.0 mph N/A   Clear
1:16 PM 10.2 °F -7.4 °F 3.2 °F 73% 29.58 in 5.0 mi West 17.3 mph 26.5 mph N/A   Haze
1:36 PM 10.4 °F -8.6 °F 3.4 °F 73% 29.58 in 2.0 mi West 20.7 mph 29.9 mph N/A   Haze
1:55 PM 10.9 °F -8.3 °F 3.7 °F 73% 29.59 in 2.5 mi West 21.9 mph 27.6 mph N/A   Haze
2:16 PM 11.3 °F -7.0 °F 4.1 °F 73% 29.59 in 4.0 mi West 19.6 mph 23.0 mph N/A   Haze
2:36 PM 12.0 °F -5.1 °F 4.6 °F 72% 29.60 in 4.0 mi West 17.3 mph 27.6 mph N/A   Haze
2:55 PM 12.2 °F -4.3 °F 5.2 °F 73% 29.60 in 2.0 mi West 16.1 mph - N/A   Haze
3:16 PM 12.2 °F -4.8 °F 5.2 °F 73% 29.61 in 3.0 mi West 17.3 mph 27.6 mph N/A   Haze
3:36 PM 12.7 °F -4.1 °F 5.5 °F 73% 29.63 in 4.0 mi West 17.3 mph 24.2 mph N/A   Haze
3:55 PM 13.1 °F -0.7 °F 5.7 °F 72% 29.63 in 10.0 mi West 11.5 mph 18.4 mph N/A   Clear
4:16 PM 13.6 °F 0.7 °F 5.9 °F 71% 29.64 in 10.0 mi West 10.4 mph 18.4 mph N/A   Clear
4:36 PM 14.0 °F -1.4 °F 6.4 °F 72% 29.65 in 10.0 mi West 15.0 mph - N/A   Clear
4:55 PM 13.6 °F -3.0 °F 6.3 °F 72% 29.66 in 10.0 mi West 17.3 mph 24.2 mph N/A   Clear
5:16 PM 13.8 °F -0.5 °F 6.3 °F 72% 29.67 in 10.0 mi West 12.7 mph - N/A   Clear
5:36 PM 13.1 °F -0.7 °F 5.9 °F 73% 29.67 in 10.0 mi West 11.5 mph 19.6 mph N/A   Clear
5:55 PM 13.1 °F -1.4 °F 5.9 °F 73% 29.68 in 10.0 mi West 12.7 mph 20.7 mph N/A   Clear
6:16 PM 12.7 °F -1.1 °F 5.9 °F 74% 29.69 in 10.0 mi West 11.5 mph 18.4 mph N/A   Clear
6:36 PM 12.7 °F -1.1 °F 5.7 °F 74% 29.70 in 10.0 mi West 11.5 mph - N/A   Clear
6:55 PM 12.7 °F -2.5 °F 5.7 °F 74% 29.71 in 10.0 mi West 13.8 mph 19.6 mph N/A   Clear
7:16 PM 12.9 °F -2.2 °F 5.9 °F 74% 29.71 in 10.0 mi West 13.8 mph 21.9 mph N/A   Clear
7:36 PM 12.7 °F -2.5 °F 5.9 °F 74% 29.72 in 10.0 mi West 13.8 mph 20.7 mph N/A   Clear
7:55 PM 12.6 °F -3.8 °F 6.1 °F 75% 29.72 in 10.0 mi WSW 16.1 mph 23.0 mph N/A   Clear
8:16 PM 12.7 °F -1.8 °F 6.3 °F 75% 29.73 in 10.0 mi West 12.7 mph - N/A   Clear
8:36 PM 13.1 °F -2.0 °F 6.4 °F 75% 29.74 in 10.0 mi West 13.8 mph 20.7 mph N/A   Clear
8:55 PM 12.7 °F -3.0 °F 5.9 °F 74% 29.74 in 10.0 mi West 15.0 mph 21.9 mph N/A   Clear
9:16 PM 12.2 °F -3.1 °F 5.7 °F 75% 29.75 in 10.0 mi WSW 13.8 mph - N/A   Clear
9:36 PM 12.2 °F -3.7 °F 5.4 °F 74% 29.76 in 10.0 mi West 15.0 mph 20.7 mph N/A   Clear
9:55 PM 11.8 °F -3.6 °F 5.0 °F 74% 29.76 in 10.0 mi West 13.8 mph 23.0 mph N/A   Clear
10:16 PM 11.3 °F -2.9 °F 4.8 °F 75% 29.76 in 10.0 mi West 11.5 mph 16.1 mph N/A   Clear
10:36 PM 11.1 °F -5.1 °F 4.6 °F 75% 29.76 in 10.0 mi West 15.0 mph 19.6 mph N/A   Clear
10:55 PM 10.8 °F -4.3 °F 4.1 °F 75% 29.76 in 10.0 mi West 12.7 mph 17.3 mph N/A   Clear
11:15 PM 10.4 °F -4.1 °F 3.9 °F 75% 29.77 in 10.0 mi West 11.5 mph 19.6 mph N/A   Clear
11:36 PM 9.9 °F -4.0 °F 3.6 °F 76% 29.78 in 10.0 mi West 10.4 mph 17.3 mph N/A   Clear
11:55 PM 9.5 °F -5.9 °F 3.2 °F 76% 29.78 in 10.0 mi West 12.7 mph 17.3 mph N/A   Clear